• In Netherlands
  • List of Countries
  • For 7 days
  • Water Temperature
  • Satellite Maps
  • Weather Map
  • Weather Widgets
  • user-avatar
    Login

    Hourly Weather Hrodna

    Today, 27 April, Thursday

    Time Temperature Precipitation Wind Pressure Humidity
    00:00 +5°C° 0.2 mm 1 mps 749 mmHg 88%
    01:00 +5°C° 0.2 mm 1 mps 749 mmHg 89%
    02:00 +5°C° 0.2 mm 1 mps 749 mmHg 90%
    03:00 +5°C° 0.2 mm 1 mps 749 mmHg 91%
    04:00 +4°C° 0.2 mm 1 mps 749 mmHg 92%
    05:00 +4°C° 0.2 mm 1 mps 749 mmHg 93%
    06:00 +5°C° 0.1 mm 1 mps 749 mmHg 89%
    07:00 +6°C° 0.1 mm 1 mps 749 mmHg 86%
    08:00 +7°C° 0.1 mm 1 mps 749 mmHg 82%
    09:00 +8°C° 0.1 mm 1 mps 749 mmHg 78%
    10:00 +9°C° 0.1 mm 1 mps 749 mmHg 74%
    11:00 +9°C° 0.1 mm 1 mps 749 mmHg 69%
    12:00 +10°C° 0.1 mm 1 mps 750 mmHg 67%
    13:00 +10°C° 0.1 mm 1 mps 750 mmHg 66%
    14:00 +10°C° 0.1 mm 1 mps 750 mmHg 64%
    15:00 +10°C° 0.1 mm 1 mps 750 mmHg 65%
    16:00 +10°C° 0.1 mm 1 mps 750 mmHg 65%
    17:00 +10°C° 0.1 mm 1 mps 750 mmHg 66%
    18:00 +9°C° 0 mm 1 mps 750 mmHg 72%
    19:00 +8°C° 0 mm 1 mps 750 mmHg 78%
    20:00 +7°C° 0 mm 1 mps 751 mmHg 84%
    21:00 +7°C° 0 mm 1 mps 751 mmHg 87%
    22:00 +6°C° 0 mm 1 mps 751 mmHg 90%
    23:00 +5°C° 0 mm 1 mps 752 mmHg 93%

    Tomorrow, 28 April, Friday

    Time Temperature Precipitation Wind Pressure Humidity
    00:00 +5°C° 0 mm 1 mps 752 mmHg 94%
    01:00 +5°C° 0 mm 1 mps 752 mmHg 94%
    02:00 +4°C° 0 mm 1 mps 752 mmHg 95%
    03:00 +4°C° 0 mm 1 mps 752 mmHg 95%
    04:00 +4°C° 0 mm 1 mps 751 mmHg 95%
    05:00 +3°C° 0 mm 2 mps 751 mmHg 96%
    06:00 +4°C° 0.1 mm 2 mps 751 mmHg 91%
    07:00 +4°C° 0.1 mm 3 mps 751 mmHg 87%
    08:00 +5°C° 0.1 mm 3 mps 751 mmHg 82%
    09:00 +5°C° 0.8 mm 4 mps 751 mmHg 85%
    10:00 +5°C° 0.8 mm 4 mps 750 mmHg 87%
    11:00 +5°C° 0.8 mm 4 mps 750 mmHg 90%
    12:00 +5°C° 1.5 mm 4 mps 750 mmHg 91%
    13:00 +5°C° 1.5 mm 5 mps 749 mmHg 92%
    14:00 +3°C° 1.5 mm 5 mps 749 mmHg 93%
    15:00 +3°C° 1.7 mm 5 mps 748 mmHg 93%
    16:00 +3°C° 1.7 mm 5 mps 748 mmHg 94%
    17:00 +3°C° 1.7 mm 5 mps 747 mmHg 95%
    18:00 +3°C° 1.2 mm 5 mps 747 mmHg 95%
    19:00 +3°C° 1.2 mm 5 mps 746 mmHg 96%
    20:00 +4°C° 1.2 mm 4 mps 746 mmHg 96%
    21:00 +5°C° 1.4 mm 4 mps 745 mmHg 97%
    22:00 +5°C° 1.4 mm 4 mps 745 mmHg 97%
    23:00 +5°C° 1.4 mm 3 mps 745 mmHg 97%

    Day after tomorrow, 29 April, Saturday

    Time Temperature Precipitation Wind Pressure Humidity
    00:00 +5°C° 0.5 mm 3 mps 744 mmHg 98%
    01:00 +6°C° 0.5 mm 2 mps 744 mmHg 98%
    02:00 +6°C° 0.5 mm 2 mps 743 mmHg 98%
    03:00 +6°C° 0.1 mm 2 mps 743 mmHg 98%
    04:00 +6°C° 0.1 mm 1 mps 743 mmHg 98%
    05:00 +6°C° 0.1 mm 1 mps 743 mmHg 99%
    06:00 +7°C° 0 mm 1 mps 743 mmHg 97%
    07:00 +8°C° 0 mm 1 mps 743 mmHg 96%
    08:00 +9°C° 0 mm 1 mps 743 mmHg 95%
    09:00 +10°C° 0.1 mm 1 mps 744 mmHg 93%
    10:00 +9°C° 0.1 mm 2 mps 744 mmHg 91%
    11:00 +10°C° 0.1 mm 3 mps 744 mmHg 89%
    12:00 +10°C° 0 mm 3 mps 745 mmHg 88%
    13:00 +10°C° 0 mm 4 mps 745 mmHg 86%
    14:00 +8°C° 0 mm 4 mps 746 mmHg 85%
    15:00 +8°C° 0 mm 4 mps 746 mmHg 83%
    16:00 +8°C° 0 mm 4 mps 747 mmHg 82%
    17:00 +8°C° 0 mm 4 mps 747 mmHg 80%
    18:00 +8°C° 0 mm 3 mps 747 mmHg 83%
    19:00 +7°C° 0 mm 3 mps 748 mmHg 85%
    20:00 +7°C° 0 mm 2 mps 748 mmHg 87%
    21:00 +6°C° 0 mm 2 mps 749 mmHg 89%
    22:00 +5°C° 0 mm 2 mps 749 mmHg 91%
    23:00 +5°C° 0 mm 2 mps 749 mmHg 94%

    30 April, Sunday

    Time Temperature Precipitation Wind Pressure Humidity
    00:00 +4°C° 0 mm 2 mps 750 mmHg 94%
    01:00 +4°C° 0 mm 2 mps 750 mmHg 95%
    02:00 +4°C° 0 mm 2 mps 750 mmHg 96%
    03:00 +4°C° 0 mm 1 mps 750 mmHg 96%
    04:00 +4°C° 0 mm 1 mps 751 mmHg 96%
    05:00 +4°C° 0 mm 1 mps 751 mmHg 96%
    06:00 +5°C° 0 mm 1 mps 751 mmHg 89%
    07:00 +7°C° 0 mm 1 mps 751 mmHg 83%
    08:00 +7°C° 0 mm 2 mps 752 mmHg 76%
    09:00 +8°C° 0 mm 2 mps 752 mmHg 72%
    10:00 +9°C° 0 mm 2 mps 752 mmHg 68%
    11:00 +10°C° 0 mm 2 mps 753 mmHg 64%
    12:00 +12°C° 0 mm 2 mps 753 mmHg 60%
    13:00 +11°C° 0 mm 3 mps 753 mmHg 57%
    14:00 +12°C° 0 mm 3 mps 753 mmHg 53%
    15:00 +12°C° 0 mm 3 mps 754 mmHg 54%
    16:00 +12°C° 0 mm 3 mps 754 mmHg 54%
    17:00 +12°C° 0 mm 2 mps 754 mmHg 55%
    18:00 +10°C° 0 mm 2 mps 754 mmHg 64%
    19:00 +8°C° 0 mm 2 mps 755 mmHg 73%
    20:00 +6°C° 0 mm 2 mps 755 mmHg 82%
    21:00 +5°C° 0 mm 2 mps 755 mmHg 85%
    22:00 +4°C° 0 mm 2 mps 756 mmHg 88%
    23:00 +4°C° 0 mm 2 mps 756 mmHg 91%

    1 May, Monday

    Time Temperature Precipitation Wind Pressure Humidity
    00:00 +3°C° 0 mm 2 mps 756 mmHg 92%
    01:00 +3°C° 0 mm 2 mps 756 mmHg 93%
    02:00 +2°C° 0 mm 2 mps 757 mmHg 93%
    03:00 +2°C° 0 mm 2 mps 757 mmHg 94%
    04:00 +1°C° 0 mm 2 mps 757 mmHg 94%
    05:00 +1°C° 0 mm 2 mps 758 mmHg 95%
    06:00 +3°C° 0 mm 2 mps 758 mmHg 88%
    07:00 +4°C° 0 mm 2 mps 758 mmHg 81%
    08:00 +6°C° 0 mm 2 mps 758 mmHg 74%
    09:00 +7°C° 0 mm 2 mps 758 mmHg 67%
    10:00 +9°C° 0 mm 2 mps 758 mmHg 60%
    11:00 +10°C° 0 mm 2 mps 758 mmHg 53%
    12:00 +12°C° 0 mm 2 mps 758 mmHg 52%
    13:00 +13°C° 0 mm 2 mps 758 mmHg 50%
    14:00 +13°C° 0 mm 2 mps 758 mmHg 49%
    15:00 +12°C° 0 mm 3 mps 758 mmHg 52%
    16:00 +12°C° 0 mm 3 mps 758 mmHg 54%
    17:00 +11°C° 0 mm 3 mps 758 mmHg 57%
    18:00 +10°C° 0 mm 2 mps 758 mmHg 65%
    19:00 +8°C° 0 mm 2 mps 759 mmHg 72%
    20:00 +7°C° 0 mm 2 mps 759 mmHg 80%
    21:00 +6°C° 0 mm 2 mps 759 mmHg 84%
    22:00 +5°C° 0 mm 2 mps 759 mmHg 88%
    23:00 +4°C° 0 mm 2 mps 760 mmHg 91%

    2 May, Tuesday

    Time Temperature Precipitation Wind Pressure Humidity
    00:00 +4°C° 0 mm 2 mps 760 mmHg 92%
    01:00 +3°C° 0 mm 2 mps 760 mmHg 94%
    02:00 +3°C° 0 mm 2 mps 760 mmHg 95%
    03:00 +3°C° 0 mm 2 mps 760 mmHg 95%
    04:00 +2°C° 0 mm 2 mps 760 mmHg 95%
    05:00 +2°C° 0 mm 2 mps 761 mmHg 95%
    06:00 +3°C° 0 mm 2 mps 761 mmHg 87%
    07:00 +5°C° 0 mm 2 mps 761 mmHg 80%
    08:00 +7°C° 0 mm 3 mps 761 mmHg 73%
    09:00 +8°C° 0 mm 3 mps 761 mmHg 67%
    10:00 +10°C° 0 mm 3 mps 761 mmHg 62%
    11:00 +11°C° 0 mm 3 mps 760 mmHg 56%
    12:00 +12°C° 0 mm 3 mps 760 mmHg 55%
    13:00 +13°C° 0 mm 3 mps 760 mmHg 53%
    14:00 +14°C° 0 mm 3 mps 760 mmHg 52%
    15:00 +13°C° 0 mm 3 mps 760 mmHg 54%
    16:00 +13°C° 0 mm 3 mps 760 mmHg 55%
    17:00 +13°C° 0 mm 3 mps 760 mmHg 57%
    18:00 +11°C° 0 mm 3 mps 760 mmHg 66%
    19:00 +10°C° 0 mm 3 mps 760 mmHg 75%
    20:00 +8°C° 0 mm 2 mps 760 mmHg 84%
    21:00 +7°C° 0 mm 2 mps 760 mmHg 87%
    22:00 +6°C° 0 mm 2 mps 760 mmHg 90%
    23:00 +5°C° 0 mm 2 mps 761 mmHg 93%
    Show more